Location: Quail Creek Observatory
(32.9410°N, 97.1240°W)
Time: 10:59:43
(UTC-05:00)

Daily predictions for brighter satellites

Satellite Brightness Start Highest point End
(mag) Time Altitude Azimuth Time Altitude Azimuth Time Altitude Azimuth
Cosmos 407 Rocket 4.4 20:51:55 10° N 20:56:42 33° ENE 21:01:29 10° SE
Meteosat 1 Rocket2 3.9 20:55:50 10° WSW 21:00:28 55° S 21:07:25 10° ESE
Cosmos 1733 Rocket 3.0 20:57:52 10° S 21:02:15 73° E 21:06:38 10° N
Cosmos 1908 Rocket 4.5 20:58:32 10° SSE 21:02:18 28° E 21:06:06 10° NNE
ISS -1.8 20:59:16 10° WSW 21:02:22 41° NW 21:05:28 10° NNE
Cosmos 1452 Rocket 3.7 21:01:24 10° S 21:06:29 52° ESE 21:11:35 10° NNE
Cosmos 1862 4.3 21:05:51 10° SSE 21:09:18 27° E 21:12:45 10° NNE
Cosmos 1606 4.1 21:06:13 10° NNE 21:09:21 22° ENE 21:12:07 12° SE
Cosmos 1892 3.4 21:06:33 10° SSW 21:10:19 59° W 21:14:09 10° N
Cosmos 1190 Rocket 4.1 21:08:20 10° N 21:13:30 61° ENE 21:18:37 10° SSE
Cosmos 1184 Rocket 4.3 21:13:02 12° SE 21:15:09 20° E 21:17:38 10° NE
Cosmos 1238 Rocket 4.4 21:12:53 10° NE 21:15:20 17° E 21:17:07 13° ESE
CENTAUR R/B 3.5 21:10:06 10° NW 21:18:04 68° WSW 21:26:18 10° SSE
Abrixas 3.1 21:18:39 10° SSW 21:21:25 33° SE 21:24:13 10° ENE
deb Chang Zheng 4 4.3 21:18:42 10° NE 21:22:42 33° E 21:26:43 10° SSE
H-2A R/B 3.1 21:22:24 10° S 21:26:04 64° W 21:29:47 10° NNW
Meteor 1-27 Rocket 4.0 21:22:25 10° N 21:27:43 46° E 21:32:19 13° SSE
H-2A R/B 3.1 21:29:41 18° ESE 21:32:02 29° ENE 21:35:42 10° NNE
Intelsat 3F5 C 4.4 21:30:24 10° W 21:33:43 51° S 21:35:12 26° ESE
Cosmos 2154 Rocket 4.0 21:28:07 10° S 21:34:15 66° E 21:40:23 10° NNE
ATLAS 5 CENTAUR R/B 3.1 21:28:25 10° NW 21:34:26 54° WSW 21:40:44 10° S
YAOGAN 11 4.1 21:30:47 11° SSE 21:35:06 73° ENE 21:39:39 10° N
Cosmos 1408 2.8 21:31:52 11° SSE 21:35:15 47° E 21:38:46 10° NNE
PSLV R/B 4.2 21:32:43 10° WNW 21:35:56 38° SSW 21:37:47 21° SSE
Cosmos 1782 2.9 21:33:33 10° N 21:37:35 81° W 21:41:38 10° S
Centaur AC-119 2.9 21:40:09 10° WSW 21:41:49 17° SSW 21:41:49 17° SSW
IUS-26 SRM-1 3.7 21:40:36 10° SW 21:41:33 16° SSW 21:41:33 16° SSW
Cosmos 1174 3.1 21:40:45 10° NNW 21:43:48 60° ENE 21:44:45 36° SE
Cosmos 676 Rocket 4.0 21:39:24 10° NNW 21:44:38 71° ENE 21:48:17 20° SSE
CZ-4 DEB 3.1 21:42:30 15° S 21:44:59 64° W 21:48:08 10° NNW
COS B Rocket 3.2 21:43:06 10° NNE 21:46:48 49° E 21:48:08 30° SE
Cosmos 1954 Rocket 4.1 21:42:40 10° N 21:47:49 57° ENE 21:50:51 24° SE
Okean 3 3.9 21:44:16 10° N 21:48:19 42° E 21:49:57 29° SE
Cosmos 1825 2.1 21:48:45 10° S 21:52:33 89° W 21:56:24 10° N
Cosmos 1939 Rocket 2.7 21:51:52 28° SSE 21:53:48 70° ENE 21:57:43 10° N
Atlas Centaur 2 1.8 21:51:05 10° W 21:54:25 34° SSW 21:55:08 31° SSE
GPS 2-05 Rocket1 3.5 21:51:32 10° W 21:55:12 54° N 21:57:13 23° ENE
Cosmos 1833 Rocket 4.3 21:55:42 10° NNE 21:59:38 19° ENE 22:01:16 17° E
Cosmos 2278 Rocket 2.9 21:55:44 10° SW 22:01:17 57° WNW 22:06:53 10° NNE
BREEZE-M DEB (TANK) 2.7 22:00:36 10° WNW 22:02:50 58° SW 22:04:00 37° SSE
Okean 2 Rocket 2.9 22:04:53 21° S 22:07:45 82° E 22:12:10 10° N
PSLV R/B 4.5 22:11:01 28° NE 22:11:01 28° NE 22:12:52 10° N
CZ-4 SHROUD 4.4 22:14:23 30° NE 22:14:23 30° NE 22:16:27 10° N
Envisat 3.0 22:12:11 27° S 22:14:59 81° WSW 22:20:06 10° NNW
Cosmos 1782 Rocket 4.0 22:11:18 12° SSW 22:15:23 64° W 22:19:50 10° N
Meteor 2-13 Rocket 4.4 22:11:26 13° S 22:17:03 87° E 22:23:15 10° N
SEDSat Delta rocket 2.7 22:14:34 10° WSW 22:18:56 63° S 22:19:11 61° SSE
UNK 4.3 22:17:26 10° NNE 22:23:32 74° ESE 22:27:02 26° S
OAO 3 Rocket 3.2 22:18:54 10° W 22:23:53 83° N 22:25:52 37° ENE
Cosmos 614 Rocket 4.1 22:19:09 10° N 22:24:06 51° ENE 22:24:53 47° ESE
Cosmos 2082 Rocket 2.8 22:20:25 10° N 22:25:45 40° ENE 22:26:48 37° E
ERS-1 Rocket 4.1 22:22:57 15° SSW 22:26:44 39° W 22:31:26 10° NNW
COSMOS 2487 3.2 22:24:51 10° NNW 22:28:20 46° WSW 22:28:46 44° SW
Cosmos 2218 Rocket 4.0 22:26:40 33° SSE 22:29:41 70° E 22:36:03 10° N
Meteor 1-14 Rocket 4.1 22:31:24 31° S 22:34:18 90° E 22:39:55 10° N
Cosmos 1975 Rocket 3.4 22:30:19 10° NNW 22:34:36 60° W 22:35:39 45° SSW
Cosmos 1140 Rocket 3.6 22:33:43 10° NNW 22:38:50 69° WSW 22:40:09 48° SSW
Cosmos 2297 4.3 22:33:18 10° SW 22:38:52 56° WNW 22:44:29 10° N
Terra 3.5 22:40:06 20° NE 22:40:06 20° NE 22:42:50 10° NNE
DNEPR-1 R/B 3.5 22:34:36 10° NNW 22:39:38 89° ENE 22:39:53 81° SE
Cosmos 1959 Rocket 4.3 22:37:42 36° S 22:40:22 87° E 22:46:29 10° N
SL-08 R/B 4.5 22:39:00 36° S 22:41:54 85° E 22:48:24 10° N
Intercosmos 25 4.2 22:42:36 39° WSW 22:43:02 41° W 22:46:06 10° N
NOAA 11 4.2 22:43:03 57° ESE 22:43:40 61° ENE 22:49:05 10° N
USA 234 4.1 22:40:14 10° ENE 22:43:56 31° E 22:43:56 31° E
MetOp-B 4.2 22:45:55 50° SSW 22:47:15 71° WSW 22:52:36 10° NNW
Cosmos 1536 Rocket 4.3 22:43:13 10° N 22:46:41 43° NE 22:46:41 43° NE
Cosmos 1727 Rocket 4.0 22:42:08 10° N 22:48:12 56° E 22:48:47 54° ESE
CZ-4B R/B 3.3 22:43:39 10° N 22:48:33 82° WNW 22:49:14 65° SSW
Meteor 2-8 Rocket 4.5 22:43:09 10° N 22:49:13 57° E 22:49:45 55° ESE
H-2A R/B 3.0 22:51:51 36° ENE 22:51:51 36° ENE 22:56:18 10° N
SPOT 5 3.9 22:53:16 35° SW 22:54:57 46° W 23:00:07 10° NNW
SPOT 1/Viking Rocket 3.7 23:06:51 66° WSW 23:07:04 66° WSW 23:12:16 10° NNW
Cosmos 2369 Rocket 4.2 23:11:23 16° NE 23:11:23 16° NE 23:12:39 10° NE
H-2A R/B 4.3 23:06:50 16° WSW 23:08:00 18° W 23:10:57 10° NW
Lacrosse 5 2.9 23:10:52 36° NE 23:10:52 36° NE 23:13:51 10° NE
ARGOS 3.1 23:09:20 74° WSW 23:09:26 74° WSW 23:14:48 10° NNW
Cosmos 1339 Rocket 4.4 23:03:29 10° N 23:09:40 70° E 23:09:44 70° E
BREEZE-M DEB (TANK) 3.8 23:23:00 10° NW 23:28:16 44° WNW 23:28:16 44° WNW
USA 229 DEB 3.7 23:30:26 10° NW 23:37:32 72° WSW 23:37:41 71° SW
USA 229 3.7 23:30:32 10° NW 23:37:38 72° WSW 23:37:47 72° SW
Cosmos 1833 Rocket 3.5 23:38:24 10° NNW 23:42:58 46° WNW 23:42:58 46° WNW
